Tracking 35331 objects as of 14-Sep-2026
HD Live streaming from Space Station
objects crossing your sky now

MOLNIYA 1-83


MOLNIYA 1-83 is no longer on orbit
MOLNIYA 1-83 is classified as:


NORAD ID: 21897
Int'l Code: 1992-011A
Launch date: March 4, 1992
Source: Commonwealth of Independent States (former USSR) (CIS)
Launch site: PLESETSK MISSILE AND SPACE COMPLEX (PKMTR)
Decay date: 2007-07-01
Your satellite tracking list
Your tracking list is empty




NASA's NSSDC Master Catalog

Two Line Element Set (TLE):
1 21897U 92011A   07182.54228483  .99999999  39507-5  71364-3 0  9999
2 21897 062.0262 125.4048 0862131 260.6337 095.0674 14.64030781113010
Source of the keplerian elements: AFSPC